This demonstration page uses our WeatherBlox Daily Observations layout. Learn more.

Left ArrowRight Arrow

44.89941, -97.11507

Hourly Observations for January 28, 2022

Temp ( °F °C ) Dew Point ( °F °C ) Humidity (%) Winds ( mph kmh ) Pressure ( in mb ) Visibility ( mi km ) Precip ( " mm )
12:53 am 00:53 Clear -13 -25 -15 -26.1 91 91 Calm 30.54 1034 10 16 0.00 0.00
1:53 am 01:53 Clear -13 -25 -17 -27.2 82 82 S 3 6 30.53 1034 10 16 0.00 0.00
2:53 am 02:53 Clear -11 -23.9 -15 -26.1 82 82 S 3 6 30.52 1034 10 16 0.00 0.00
3:53 am 03:53 Mostly Cloudy -10 -23.3 -13 -25 86 86 SSW 3 6 30.51 1033 10 16 0.00 0.00
4:34 am 04:34 Cloudy -5 -20.6 -9 -22.8 83 83 S 6 9 30.58 1036 10 16 0.00 0.00
4:53 am 04:53 Cloudy -5 -20.6 -8 -22.2 87 87 S 3 6 30.48 1032 10 16 0.00 0.00
5:53 am 05:53 Cloudy -2 -18.9 -5 -20.6 87 87 Calm 30.48 1032 10 16 0.00 0.00
6:53 am 06:53 Cloudy 3 -16.1 -1 -18.3 83 83 S 6 9 30.44 1031 10 16 0.00 0.00
7:15 am 07:15 Partly Cloudy 1 -17.2 -3 -19.4 83 83 S 7 11 30.51 1033 10 16 0.00 0.00
7:53 am 07:53 Partly Cloudy 2 -16.7 -2 -18.9 83 83 S 7 11 30.44 1031 10 16 0.00 0.00
8:53 am 08:53 Partly Cloudy 4 -15.6 0 -17.8 83 83 SSE 7 11 30.44 1031 10 16 0.00 0.00
9:53 am 09:53 Cloudy 7 -13.9 3 -16.1 84 84 SSE 6 9 30.43 1031 10 16 0.00 0.00
10:53 am 10:53 Cloudy 11 -11.7 5 -15 77 77 S 8 13 30.41 1030 10 16 0.00 0.00
11:49 am 11:49 Cloudy 18 -8 10 -12 73 73 S 9 15 30.41 1030 10 16 0.00 0.00
11:53 am 11:53 Cloudy 17 -8.3 10 -12.2 74 74 S 10 17 30.40 1029 10 16 0.00 0.00
12:06 pm 12:06 Cloudy 18 -7.8 11 -11.7 74 74 S 9 15 30.40 1029 10 16 0.00 0.00
12:16 pm 12:16 Cloudy 19 -7.2 12 -11.1 74 74 S 9 15 30.38 1029 10 16 0.00 0.00
12:53 pm 12:53 Cloudy 20 -6.7 14 -10 78 78 S 9 15 30.36 1028 10 16 0.00 0.00
1:25 pm 13:25 Partly Cloudy 22 -5.6 15 -9.4 75 75 S 8 13 30.34 1027 10 16 0.00 0.00
1:53 pm 13:53 Sunny 23 -5 16 -8.9 74 74 S 8 13 30.32 1027 10 16 0.00 0.00
2:53 pm 14:53 Sunny 24 -4.4 18 -7.8 77 77 S 8 13 30.30 1026 10 16 0.00 0.00
3:53 pm 15:53 Sunny 24 -4.4 18 -7.8 77 77 S 8 13 30.28 1025 10 16 0.00 0.00
4:53 pm 16:53 Sunny 24 -4.4 17 -8.3 75 75 SSE 8 13 30.25 1025 10 16 0.00 0.00
5:53 pm 17:53 Clear 22 -5.6 16 -8.9 78 78 SE 5 7 30.24 1024 10 16 0.00 0.00
6:53 pm 18:53 Clear 19 -7.2 14 -10 81 81 SE 5 7 30.22 1023 10 16 0.00 0.00
7:53 pm 19:53 Clear 17 -8.3 13 -10.6 84 84 SSE 6 9 30.20 1023 10 16 0.00 0.00
8:53 pm 20:53 Clear 17 -8.3 12 -11.1 80 80 SSE 7 11 30.17 1022 10 16 0.00 0.00
9:53 pm 21:53 Clear 19 -7.2 13 -10.6 77 77 SSE 8 13 30.14 1021 10 16 0.00 0.00
10:53 pm 22:53 Clear 19 -7.2 13 -10.6 77 77 SSE 8 13 30.12 1020 10 16 0.00 0.00
11:53 pm 23:53 Clear 19 -7.2 13 -10.6 77 77 SSE 9 15 30.08 1019 10 16 0.00 0.00

Powered by AerisWeather